Regional Weather Roundup
Issued by NWS Charleston, SC

Current Version | Previous Version | Graphics & Text | Print | Product List | Glossary On
Versions: 1 2 3 4 5 6 7 8 9 10 11 12 13 14 15 16 17 18 19 20 21 22 23 24 25 26 27 28 29 30 31 32 33 34 35 36 37 38 39 40 41 42 43 44 45 46 47 48 49 50
572 ASUS42 KCHS 241327 RWRCHS REGIONAL WEATHER ROUNDUP NATIONAL WEATHER SERVICE CHARLESTON SC 900 AM EDT SAT JUN 24 2017 NOTE: "FAIR" INDICATES FEW OR NO CLOUDS BELOW 12,000 FEET WITH NO SIGNIFICANT WEATHER AND/OR OBSTRUCTIONS TO VISIBILITY. NOT ALL STATIONS ARE QUALITY CONTROLLED. USE DATA WITH CAUTION... ESPECIALLY DEWPOINT OBSERVATIONS. SCZ027-030-031-034>040-042>050-241400- ...SOUTHEAST SOUTH CAROLINA... CITY SKY/WX TMP DP RH WIND PRES REMARKS N CHARLESTON MOSUNNY 84 73 69 W9 30.00R HX 90 WATERFRONT PRK N/A 83 76 79 SW6G13 29.99R HX 91 JOHNS ISLAND NOT AVBL PINOPOLIS N/A 81 75 83 SW12 29.93R MONCKS CORNER NOT AVBL SUMMERVILLE NOT AVBL BEAUFORT MCAS SUNNY 84 75 74 SW10 30.02R HX 92 BEAUFORT ARPT NOT AVBL HILTON HEAD IS SUNNY 84 75 74 S9 30.03R HX 92 WALTERBORO MOSUNNY 81 72 74 W9 30.02S ALLENDALE FAIR 82 73 74 SW8 30.00S ...SOUTHERN MIDLANDS AND PEE DEE... CITY SKY/WX TMP DP RH WIND PRES REMARKS GEORGETOWN FAIR 82 77 83 W8 30.01R HX 91 KINGSTREE NOT AVBL ORANGEBURG MOSUNNY 82 74 76 SW12 30.00R BARNWELL FAIR 84 75 74 W8 30.01R HX 92 AIKEN PTSUNNY 79 72 78 W14 30.04R MANNING NOT AVBL COLUMBIA MOSUNNY 83 73 72 SW12 29.98R SUMTER PTSUNNY 82 73 74 SW13 29.96R FLORENCE SUNNY 82 75 79 SW10 29.97R MYRTLE BEACH MOSUNNY 82 75 78 W12 29.99R N MYRTLE BEACH MOSUNNY 83 75 77 SW13 29.98R HX 90 $$ GAZ063-065-086>088-099>101-113>116-118-119-134>141-150-241400- ...SOUTHEAST GEORGIA... CITY SKY/WX TMP DP RH WIND PRES REMARKS SAVANNAH ARPT MOSUNNY 82 72 71 SW9 30.04R HUNTER AAF SUNNY 83 75 77 W6 30.01R FORT STEWART SUNNY 81 73 76 SW9 30.01R STATESBORO SUNNY 82 76 82 W6 30.03S SYLVANIA SUNNY 82 76 82 W6 30.04R HAZE CLAXTON FAIR 80 73 79 SW7 30.04R ...CSRA...CENTRAL AND FAR SOUTHEAST GEORGIA... CITY SKY/WX TMP DP RH WIND PRES REMARKS THOMSON PTSUNNY 80 72 75 NW8 30.06R AUGUSTA-BUSH MOSUNNY 83 74 74 W9 29.99R AUGUSTA-DANIEL MOSUNNY 82 70 66 VRB6 30.01R SWAINSBORO FAIR 81 73 78 W7 30.03S VIDALIA MOSUNNY 81 73 78 SW9 30.04S EASTMAN PTSUNNY 80 67 66 W8 30.06S HAZLEHURST N/A 82 77 85 W5 30.04S ALMA MOSUNNY 78 74 87 SW6 30.04S WAYCROSS PTSUNNY 82 81 97 SW7 30.06R HX 93 JESUP FAIR 81 72 74 W6 30.05R BAXLEY FAIR 81 81 100 SW6 30.04S HX 91 BRUNSWICK SUNNY 82 77 83 SW8 30.05F HX 91 SAINT SIMONS SUNNY 82 74 76 W8 30.05R $$ SCZ027-028-034-036>038-045-046-048>050-GAZ119-141-241400- ...LAKE AND SUPPLEMENTAL COASTAL OBSERVATIONS... STATION/POSITION TIME TEMP WIND PRES WAVE SWELL AIR SEA DIR/SP/G HT/PER HT/PER/DIR (UTC) (F) (DEG/KT/KT) (MB) (FT/S) (FT/S/D) WINYAH BAY 1230 82 240/ 10 1015.0S LAKE MURRAY 1250 80 240/ 10/ 15 1014.2R ACE BASIN NERRS 1230 82 230/ 2 1016.0S FORT PULASKI 1300 82 83 250/ 6/ 9 1017.2 SAPELO ISLAND 1300 81 240/ 7 1017.0 $$ ANZ835-935-AMZ111-154-330-350-352-354-370-450-454-472-241400- ...C-MAN AND BUOY OBSERVATIONS... STATION/POSITION TIME TEMP WIND PRES WAVE SWELL AIR SEA DIR/SP/G HT/PER HT/PER/DIR (UTC) (F) (DEG/KT/KT) (MB) (FT/S) (FT/S/D) BUOY 41004 1310 81 220/ 17/ 21 1016.4 BUOY 41008 1250 81 82 230/ 10/ 14 1016.7R 4/ 5 3/140/ 5 FOLLY BEACH CMAN 1300 83 220/ 12/ 16 1016.8R CAPERS NEARSHORE 1308 87 82 250/ 17/ 23 1015.6R FRIPP NEARSHORE 1308 82 82 230/ 14/ 17 1016.1R STATION/POSITION TIME TEMP WIND PRES WAVE SWELL AIR SEA DIR/SP/G HT/PER HT/PER/DIR (UTC) (F) (DEG/KT/KT) (MB) (FT/S) (FT/S/D) 5E ST. MARYS GA 1300 79 N/A 3/ 8 FRYING PAN BUOY 1310 81 81 230/ 19/ 25 1015.6 BUOY 41025 1250 81 80 230/ 25/ 29 1013.2R 9/ 7 CAPE LOOKOUT NC 1300 81 230/ 15/ 21 1013.7S BUOY 41002 1250 81 80 200/ 14/ 16 1018.6R 4/ 5 2/110/ 9 BUOY 41010 1310 83 83 180/ 10/ 14 1018.5 ST AUGUSTINE FL 1300 82 76 220/ 7/ 9 1018.1R $$

USA.gov is the U.S. government's official web portal to all federal, state and local government web resources and services.